W5URF-13 Weather Reports


time (UTC)temp
C
wind
direction
speed
KPH
gust
KPH
rain 1hr
cm
rain 24hr
cm
rain mn
cm
humidity
%
barometer
mb
20260906194510 39 146 0.0 3.2 0.00 0.00 0.00 35 1012.5
20260906193009 39 123 0.0 4.8 0.00 0.00 0.00 34 1012.5
20260906191507 39 230 1.6 6.4 0.00 0.00 0.00 33 1012.8
20260906190006 39 161 1.6 11.3 0.00 0.00 0.00 33 1012.9
20260906184505 38 85 0.0 8.0 0.00 0.00 0.00 35 1013.0
20260906183006 39 168 0.0 0.0 0.00 0.00 0.00 35 1013.4
20260906181600 38 213 0.0 0.0 0.00 0.00 0.00 37 1013.6
20260906180112 38 98 0.0 6.4 0.00 0.00 0.00 36 1014.0
20260906174556 38 49 0.0 4.8 0.00 0.00 0.00 37 1014.3
20260906173051 37 107 0.0 1.6 0.00 0.00 0.00 41 1014.5
20260906171549 37 50 0.0 1.6 0.00 0.00 0.00 43 1014.7
20260906170111 36 34 0.0 0.0 0.00 0.00 0.00 43 1014.9
20260906164541 35 40 0.0 3.2 0.00 0.00 0.00 48 1015.1
20260906163037 34 349 0.0 1.6 0.00 0.00 0.00 50 1015.2
20260906161534 33 13 0.0 4.8 0.00 0.00 0.00 54 1015.2
20260906160033 32 39 0.0 3.2 0.00 0.00 0.00 56 1015.3
20260906154531 33 108 0.0 1.6 0.00 0.00 0.00 54 1015.2
20260906153027 32 127 0.0 0.0 0.00 0.00 0.00 57 1015.2
20260906151524 31 112 0.0 0.0 0.00 0.00 0.00 61 1015.1
20260906150019 30 108 0.0 0.0 0.00 0.00 0.00 62 1015.0
20260906144525 29 117 0.0 0.0 0.00 0.00 0.00 65 1015.0
20260906143016 28 119 0.0 0.0 0.00 0.00 0.00 66 1014.9
20260906141515 28 119 0.0 0.0 0.00 0.00 0.00 67 1014.9
20260906140014 27 120 0.0 0.0 0.00 0.00 0.00 70 1014.7
20260906134522 27 120 0.0 0.0 0.00 0.00 0.00 71 1014.6
20260906133015 26 117 0.0 0.0 0.00 0.00 0.00 72 1014.7
20260906131512 26 117 0.0 0.0 0.00 0.00 0.00 73 1014.7
20260906130011 26 117 0.0 0.0 0.00 0.00 0.00 74 1014.7
20260906124513 26 117 0.0 0.0 0.00 0.00 0.00 74 1014.5
20260906123008 26 117 0.0 0.0 0.00 0.00 0.00 73 1014.4
20260906121506 25 116 0.0 0.0 0.00 0.00 0.00 72 1014.3
20260906120005 25 116 0.0 0.0 0.00 0.00 0.00 71 1014.0
20260906114501 26 116 0.0 0.0 0.00 0.00 0.00 71 1013.9
20260906113058 26 116 0.0 0.0 0.00 0.00 0.00 69 1013.7
20260906111556 26 116 0.0 0.0 0.00 0.00 0.00 68 1013.6
20260906110055 26 114 0.0 0.0 0.00 0.00 0.00 67 1013.5
20260906104554 27 110 0.0 0.0 0.00 0.00 0.00 67 1013.5
20260906103155 27 110 0.0 0.0 0.00 0.00 0.00 66 1013.4
20260906101552 27 110 0.0 0.0 0.00 0.00 0.00 67 1013.5
20260906100053 26 110 0.0 0.0 0.00 0.00 0.00 67 1013.4
20260906094602 26 110 0.0 0.0 0.00 0.00 0.00 69 1013.5
20260906093148 26 110 0.0 0.0 0.00 0.00 0.00 71 1013.3
20260906091558 26 110 0.0 0.0 0.00 0.00 0.00 69 1013.3
20260906090042 27 110 0.0 0.0 0.00 0.00 0.00 68 1013.1
20260906084540 27 110 0.0 0.0 0.00 0.00 0.00 68 1013.1
20260906083037 27 110 0.0 0.0 0.00 0.00 0.00 67 1012.9
20260906081536 27 110 0.0 0.0 0.00 0.00 0.00 65 1012.9
20260906080033 28 110 0.0 0.0 0.00 0.00 0.00 65 1013.0
20260906074530 28 110 0.0 0.0 0.00 0.00 0.00 63 1012.8
20260906073027 28 110 0.0 0.0 0.00 0.00 0.00 60 1012.7
20260906071526 28 110 0.0 0.0 0.00 0.00 0.00 61 1013.0
20260906070024 28 110 0.0 0.0 0.00 0.00 0.00 58 1013.0
20260906064522 29 110 0.0 0.0 0.00 0.00 0.00 57 1012.9
20260906063019 29 110 0.0 0.0 0.00 0.00 0.00 55 1012.9
20260906061518 29 110 0.0 0.0 0.00 0.00 0.00 55 1012.9
20260906060017 29 110 0.0 0.0 0.00 0.00 0.00 55 1013.0
20260906054516 29 110 0.0 0.0 0.00 0.00 0.00 56 1013.0
20260906053013 29 110 0.0 0.0 0.00 0.00 0.00 56 1012.9
20260906051512 30 110 0.0 0.0 0.00 0.00 0.00 57 1012.8
20260906050010 30 110 0.0 0.0 0.00 0.00 0.00 57 1012.8
20260906044509 31 234 0.0 0.0 0.00 0.00 0.00 53 1012.8
20260906043008 31 234 0.0 0.0 0.00 0.00 0.00 52 1012.6
20260906041508 31 234 0.0 0.0 0.00 0.00 0.00 53 1012.7
20260906040009 31 235 0.0 0.0 0.00 0.00 0.00 52 1012.7
20260906034507 31 234 0.0 0.0 0.00 0.00 0.00 53 1012.7
20260906033017 31 235 0.0 0.0 0.00 0.00 0.00 52 1012.5
20260906031505 31 235 0.0 0.0 0.00 0.00 0.00 51 1012.6
20260906030005 31 235 0.0 0.0 0.00 0.00 0.00 51 1012.7
20260906024504 31 235 0.0 0.0 0.00 0.00 0.00 51 1012.5
20260906023003 32 235 0.0 0.0 0.00 0.00 0.00 50 1012.2
20260906021503 32 233 0.0 0.0 0.00 0.00 0.00 48 1011.9
20260906020004 32 233 0.0 0.0 0.00 0.00 0.00 49 1011.8
20260906014503 32 233 0.0 0.0 0.00 0.00 0.00 48 1011.8
20260906013110 33 233 0.0 0.0 0.00 0.00 0.00 46 1011.6
20260906011607 33 233 0.0 0.0 0.00 0.00 0.00 46 1011.5
20260906010100 33 233 0.0 0.0 0.00 0.00 0.00 45 1011.4
20260906004609 33 233 0.0 0.0 0.00 0.00 0.00 44 1011.3
20260906003103 33 233 0.0 0.0 0.00 0.00 0.00 43 1011.3
20260906001557 34 233 0.0 1.6 0.00 0.00 0.00 42 1011.3
20260906000059 35 232 0.0 0.0 0.00 0.00 0.00 40 1011.3
20260905234557 35 143 0.0 1.6 0.00 0.00 0.00 40 1011.2
20260905233055 35 238 0.0 3.2 0.00 0.00 0.00 42 1011.0
20260905231555 36 167 0.0 1.6 0.00 0.00 0.00 40 1011.0
20260905230055 36 122 0.0 3.2 0.00 0.00 0.00 41 1010.9
20260905224555 36 91 0.0 0.0 0.00 0.00 0.00 40 1011.0
20260905223052 36 143 0.0 4.8 0.00 0.00 0.00 40 1011.1
20260905221552 36 233 0.0 4.8 0.00 0.00 0.00 40 1011.1
20260905220049 36 131 0.0 6.4 0.00 0.00 0.00 40 1011.2
20260905214548 36 176 0.0 0.0 0.00 0.00 0.00 40 1011.4
20260905213045 36 111 0.0 6.4 0.00 0.00 0.00 39 1011.7
20260905211551 37 167 1.6 6.4 0.00 0.00 0.00 39 1011.7
20260905210044 37 129 0.0 4.8 0.00 0.00 0.00 39 1012.0
20260905204544 37 160 0.0 11.3 0.00 0.00 0.00 38 1012.2
20260905203040 37 36 0.0 4.8 0.00 0.00 0.00 37 1012.5
20260905201535 37 122 0.0 6.4 0.00 0.00 0.00 38 1012.8
20260905200038 37 250 0.0 6.4 0.00 0.00 0.00 39 1013.1